This demonstration page uses our WeatherBlox Daily Observations layout. Learn more.

Left ArrowRight Arrow

Hourly Observations for May 2, 2018

Temp ( °F °C ) Dew Point ( °F °C ) Humidity (%) Winds ( mph kmh ) Pressure ( in mb ) Visibility ( mi km ) Precip ( " mm )
12:53 am 00:53 Clear 63 17.2 37 2.8 38 38 N 12 19 29.84 1010 10 16 0.00 0.00
1:53 am 01:53 Clear 62 16.7 38 3.3 41 41 N 10 17 29.83 1010 10 16 0.00 0.00
2:53 am 02:53 Clear 62 16.7 38 3.3 41 41 N 9 15 29.83 1010 10 16 0.00 0.00
3:53 am 03:53 Clear 54 12.2 41 5 62 62 E 3 6 29.86 1011 10 16 0.00 0.00
4:53 am 04:53 Clear 57 13.9 38 3.3 49 49 N 6 9 29.89 1012 10 16 0.00 0.00
5:53 am 05:53 Clear 58 14.4 37 2.8 46 46 N 5 7 29.91 1013 10 16 0.00 0.00
6:53 am 06:53 Sunny 55 12.8 39 3.9 55 55 NNE 3 6 29.92 1013 10 16 0.00 0.00
7:53 am 07:53 Sunny 63 17.2 38 3.3 40 40 N 7 11 29.93 1013 10 16 0.00 0.00
8:53 am 08:53 Sunny 66 18.9 38 3.3 36 36 NNW 9 15 29.93 1014 10 16 0.00 0.00
9:53 am 09:53 Sunny 70 21.1 37 2.8 30 30 NNW 9 15 29.93 1013 10 16 0.00 0.00
10:53 am 10:53 Sunny 73 22.8 38 3.3 28 28 NNW 9 15 29.93 1013 10 16 0.00 0.00
11:53 am 11:53 Sunny 76 24.4 37 2.8 24 24 N 10 17 29.92 1013 10 16 0.00 0.00
12:53 pm 12:53 Sunny 77 25 32 0 19 19 WNW 3 6 29.92 1013 10 16 0.00 0.00
1:53 pm 13:53 Sunny 79 26.1 30 -1.1 17 17 Calm 29.91 1013 10 16 0.00 0.00
2:53 pm 14:53 Sunny 81 27.2 23 -5 12 12 N 7 11 29.90 1013 10 16 0.00 0.00
3:53 pm 15:53 Sunny 81 27.2 26 -3.3 13 13 Calm 29.88 1012 10 16 0.00 0.00
4:53 pm 16:53 Sunny 82 27.8 34 1.1 18 18 E 8 13 29.88 1012 10 16 0.00 0.00
5:53 pm 17:53 Sunny 81 27.2 31 -0.6 16 16 SSW 5 7 29.88 1012 10 16 0.00 0.00
6:53 pm 18:53 Sunny 81 27.2 32 0 17 17 WSW 3 6 29.88 1012 10 16 0.00 0.00
7:53 pm 19:53 Sunny 76 24.4 41 5 29 29 SSW 3 6 29.89 1012 10 16 0.00 0.00
8:53 pm 20:53 Clear 69 20.6 43 6.1 39 39 Calm 29.91 1013 10 16 0.00 0.00
9:53 pm 21:53 Clear 67 19.4 46 7.8 47 47 Calm 29.95 1014 10 16 0.00 0.00
10:53 pm 22:53 Clear 60 15.6 46 7.8 60 60 Calm 29.98 1015 10 16 0.00 0.00
11:53 pm 23:53 Clear 57 13.9 47 8.3 69 69 NNE 6 9 29.99 1016 10 16 0.00 0.00

Powered by AerisWeather